Location: Ottawa
(45.4170°N, 75.7000°W)
Time: 06:00:52
(UTC-04:00)

Iridium 91 - Visible Passes

Search period start: 04 May 2015 00:00
Search period end: 14 May 2015 00:00
Orbit: 776 x 779 km, 86.4° (Epoch: 03 May)

Date Brightness Start Highest point End Pass type
(mag) Time Alt. Az. Time Alt. Az. Time Alt. Az.
04 May 7.7 01:53:53 14° ESE 01:55:56 18° E 01:59:27 10° NE visible
04 May 5.6 03:34:22 38° SSW 03:36:13 60° W 03:41:24 10° N visible
05 May 5.5 03:01:01 45° SSE 03:02:40 77° E 03:07:54 10° N visible
05 May 7.4 04:41:30 11° W 04:44:10 14° WNW 04:46:52 10° NW visible
06 May 6.4 02:27:40 34° SE 02:29:13 43° E 02:34:10 10° NNE visible
06 May 6.8 04:08:08 20° WSW 04:10:12 25° WNW 04:14:25 10° NNW visible
07 May 7.2 01:54:18 21° ESE 01:55:53 25° E 02:00:07 10° NNE visible
07 May 6.0 03:34:46 33° WSW 03:36:24 43° W 03:41:22 10° N visible
08 May 7.8 01:20:55 12° E 01:22:38 14° ENE 01:25:28 10° NE visible
08 May 5.4 03:01:24 50° SSW 03:02:46 76° W 03:08:01 10° N visible
09 May 5.8 02:28:00 47° SE 02:29:15 61° E 02:34:26 10° N visible
09 May 7.2 04:08:29 15° W 04:10:33 18° WNW 04:13:59 10° NNW visible
10 May 6.7 01:54:37 30° ESE 01:55:51 35° E 02:00:35 10° NNE visible
10 May 6.5 03:35:05 26° WSW 03:36:39 31° WNW 03:41:14 10° NNW visible
11 May 7.4 01:21:13 18° E 01:22:33 20° E 01:26:22 10° NNE visible
11 May 5.8 03:01:41 43° SW 03:02:55 53° W 03:08:03 10° N visible
12 May 7.9 00:47:58 10° E 00:49:21 11° ENE 00:51:01 10° ENE visible
12 May 5.4 02:28:16 58° S 02:29:20 86° E 02:34:36 10° N visible
12 May 7.5 04:08:45 11° W 04:10:57 13° WNW 04:13:08 10° NW visible
13 May 6.1 01:54:51 43° ESE 01:55:52 49° E 02:00:54 10° NNE visible
13 May 6.9 03:35:20 20° W 03:36:57 22° WNW 03:40:56 10° NNW visible
